Location: Taukkyan
(23.1052°N, 94.0030°E)
Time: 11:56:00
(UTC+00:00)

CZ-2D R/B - Pass Details

Date: 06 July 2020
Orbit: 792 x 844 km, 98.7° (Epoch: 14 August)

Event Time Altitude Azimuth Distance (km) Brightness Sun altitude
Rises 18:49:35 0° 19° (NNE) 3,335 6.1 -42.0°
Reaches altitude 10° 18:51:58 10° 23° (NNE) 2,409 5.2 -41.8°
Enters shadow 18:53:23 19° 28° (NNE) 1,883 4.5 -41.7°
